CAPE
0 0 0 0 0 0 0 0 0 0 0 0 0 0 0 0 0 0 0 0 0 74 286 1352 1786 2015 2052 1990 1901 1710 1538 1150 975 802 627 586 560 482 624 1125 936 517 187 43 5 0 0 0 0
0 0 0 0 0 0 0 0 0 0 0 0 0 0 0 0 0 0 0 0 4 87 657 1231 1628 1997 2090 2031 1898 1644 1445 1216 958 740 560 494 488 783 977 1040 744 240 277 121 1 0 0 0 0
0 0 0 0 0 0 0 0 0 0 0 0 0 0 0 0 0 0 0 0 92 178 670 1084 1463 1961 2118 2062 1885 1627 1487 1342 983 859 773 796 627 503 1113 864 484 238 141 38 2 0 0 0 0
0 0 0 0 0 0 0 0 0 0 0 0 0 0 0 0 0 0 0 0 97 263 543 946 1403 1993 2080 1936 1946 1511 1230 1146 1117 985 893 1015 754 671 1103 755 465 272 94 8 2 0 0 0 0
0 0 0 0 0 0 0 0 0 0 0 0 0 0 0 0 0 0 0 0 12 191 413 706 1284 1813 1941 1889 1919 1798 1546 1497 1516 1259 1199 1268 862 971 767 627 237 5 3 0 0 0 0 0 0
0 0 0 0 0 0 0 0 0 0 0 0 0 0 0 0 0 0 0 0 0 70 248 504 1062 1489 1631 1737 1760 1684 1699 1676 1645 1618 1533 1297 1000 641 350 43 0 0 0 0 2 0 0 0 0
0 0 0 0 0 0 0 0 0 0 0 0 0 0 0 0 0 0 0 0 0 11 93 266 565 916 1467 1502 1471 1497 1555 1446 1344 1338 1283 1143 1112 950 267 10 1 0 0 0 1 0 0 0 0
0 0 0 0 0 0 0 0 0 0 0 0 0 0 0 0 0 0 0 0 0 0 0 38 229 571 745 956 1240 1331 1323 1247 1160 1112 1245 972 842 298 45 0 0 0 0 0 0 0 0 0 0
0 0 0 0 0 0 0 0 0 0 0 0 0 0 0 0 0 0 0 0 0 0 0 0 29 225 453 700 655 804 1005 994 908 787 818 826 280 52 0 0 0 0 0 0 0 0 0 0 0
0 0 0 0 0 0 0 0 0 0 0 0 0 0 0 0 0 0 0 0 0 0 0 0 0 33 250 371 423 294 395 536 535 511 381 363 295 3 1 0 0 0 0 0 0 0 0 0 0
0 0 0 0 0 0 0 0 0 0 0 0 0 0 0 0 0 0 0 0 0 0 0 0 0 0 6 193 301 127 98 57 215 353 298 195 16 0 0 0 0 0 0 0 0 0 0 0 0
0 0 0 0 0 0 0 0 0 0 0 0 0 0 0 0 0 0 0 0 0 0 0 0 0 0 0 1 125 97 13 0 0 0 83 4 1 0 0 0 0 0 0 0 0 0 0 0 0
0 0 0 0 0 0 0 0 0 0 0 0 0 0 0 0 0 0 0 0 0 0 0 0 0 0 0 2 0 0 0 0 0 0 0 1 0 0 0 0 0 0 0 0 0 0 0 0 0
0 0 0 0 0 0 0 0 0 0 0 0 0 0 0 0 0 0 0 0 0 0 0 0 0 0 0 1 1 0 0 0 9 0 0 0 0 0 0 0 0 0 0 0 0 0 0 0 0
0 0 0 0 0 0 0 0 0 0 0 0 0 0 0 0 0 0 0 0 0 0 0 0 0 0 0 0 1 0 1 0 0 0 0 0 0 0 0 0 0 0 0 0 0 0 0 0 0
0 0 0 0 0 0 0 0 0 0 0 0 0 0 0 0 0 0 0 0 0 0 0 0 0 0 0 0 0 0 0 0 1 2 2 1 0 0 0 0 0 0 0 0 0 0 0 0 0
0 0 0 0 0 0 0 0 0 0 0 0 0 0 0 0 0 0 0 0 0 0 0 0 0 0 0 0 0 0 0 0 0 0 0 0 1 1 2 2 0 0 0 0 0 0 0 0 0
0 0 0 0 0 0 0 0 0 0 0 0 0 0 0 0 0 0 0 0 0 0 0 0 0 0 0 0 0 0 0 0 0 0 0 0 0 0 0 1 0 0 0 0 0 0 0 0 0
0 0 0 0 0 0 0 0 0 0 0 0 0 0 0 0 0 0 0 0 0 0 0 0 0 0 0 0 0 0 0 0 0 0 0 0 0 0 0 0 0 0 0 0 0 0 0 0 0
0 0 0 0 0 0 0 0 0 0 0 0 0 0 0 0 0 0 0 0 0 0 0 0 0 0 0 0 0 0 0 0 0 0 0 0 0 0 0 0 0 0 0 0 0 0 0 0 0
0 0 0 0 0 0 0 0 0 0 0 0 0 0 0 0 0 0 0 0 0 0 0 0 0 0 0 0 0 0 0 0 0 0 0 0 0 0 0 0 0 0 0 0 0 0 0 0 0
0 0 0 0 0 0 0 0 0 0 0 0 0 0 0 0 0 0 0 0 0 0 0 0 0 0 0 0 0 0 0 0 0 0 0 0 0 0 0 0 0 0 0 0 0 0 0 0 0
0 0 0 0 0 0 0 0 0 0 0 0 0 0 0 0 0 0 0 0 0 0 0 0 0 0 0 0 0 0 0 0 0 0 0 0 0 0 0 0 0 0 0 0 0 0 0 0 0
0 0 0 0 0 0 0 0 0 0 0 0 0 0 0 0 0 0 0 0 0 0 0 0 0 0 0 0 0 0 0 0 0 0 0 0 0 0 0 0 0 0 0 0 0 0 0 0 0
0 0 0 0 0 0 0 0 0 0 0 0 0 0 0 0 0 0 0 0 0 0 0 0 0 0 0 0 0 0 0 0 0 0 0 0 0 0 0 0 0 0 0 0 0 0 0 0 0
0 0 0 0 0 0 0 0 0 0 0 0 0 0 0 0 0 0 0 0 0 0 0 0 0 0 0 0 0 0 0 0 0 0 0 0 0 0 0 0 0 0 0 0 0 0 0 0 0
0 0 0 0 0 0 0 0 0 0 0 0 0 0 0 0 0 0 0 0 0 0 0 0 0 0 0 0 0 0 0 0 0 0 0 0 0 0 0 0 0 0 0 0 0 0 0 0 0
0 0 0 0 0 0 0 0 0 0 0 0 0 0 0 0 0 0 0 0 0 0 0 0 0 0 0 0 0 0 0 0 0 0 0 0 0 0 0 0 0 0 0 0 0 0 0 0 0
0 0 0 0 0 0 0 0 0 0 0 0 0 0 0 0 0 0 0 0 0 0 0 0 0 0 0 0 0 0 0 0 0 0 0 0 0 0 0 0 0 0 0 0 0 0 0 0 0
0 0 0 0 0 0 0 0 0 0 0 0 0 0 0 0 0 0 0 0 0 0 0 0 0 0 0 0 0 0 0 0 0 0 0 0 0 0 0 0 0 0 0 0 0 0 0 0 0
CIN
0 0 0 0 0 0 0 0 0 0 0 0 0 0 0 0 0 0 0 0 0 -571 -414 -78 -11 -0 -0 -0 0 0 -0 -21 -35 -44 -55 -50 -44 -34 -2 0 -0 -2 -18 -69 -132 -19 0 0 0
0 0 0 0 0 0 0 0 0 0 0 0 0 0 0 0 0 0 0 0 -139 -590 -273 -107 -34 -1 -1 -0 0 0 0 -10 -25 -38 -49 -47 -39 -1 0 0 -0 -14 -18 -49 0 0 0 0 0
0 0 0 0 0 0 0 0 0 0 0 0 0 0 0 0 0 0 0 0 -642 -534 -274 -135 -48 -3 -0 -1 0 -0 -1 -5 -24 -24 -20 -5 -9 -16 0 0 -2 -33 -64 -115 0 0 0 0 0
0 0 0 0 0 0 0 0 0 0 0 0 0 0 0 0 0 0 0 0 -610 -474 -307 -162 -45 0 -0 -4 -0 -3 -16 -14 -9 -9 -7 0 -1 -1 -1 -4 -12 -49 -116 -1 0 0 0 0 0
0 0 0 0 0 0 0 0 0 0 0 0 0 0 0 0 0 0 0 0 -519 -508 -366 -223 -65 -0 -2 -3 -1 0 0 0 0 0 0 0 0 0 -3 -4 -35 -2 -1 -0 -0 0 0 0 0
0 0 0 0 0 0 0 0 0 0 0 0 0 0 0 0 0 0 0 0 0 -588 -461 -318 -132 -32 -5 -3 -1 -0 0 -0 -0 -0 -0 -0 -0 -3 -14 -148 0 0 0 -0 -0 0 0 0 0
0 0 0 0 0 0 0 0 0 0 0 0 0 0 0 0 0 0 0 0 0 -687 -539 -396 -247 -129 -21 -11 -3 -0 -0 -0 -1 -1 -2 -2 -1 -0 -55 -203 -51 0 0 0 -0 0 0 0 0
0 0 0 0 0 0 0 0 0 0 0 0 0 0 0 0 0 0 0 0 0 0 0 -571 -368 -182 -111 -50 -11 -1 -1 -2 -3 -3 -2 -3 -4 -72 -173 0 0 0 0 0 0 0 0 0 0
0 0 0 0 0 0 0 0 0 0 0 0 0 0 0 0 0 0 0 0 0 0 0 0 -521 -323 -194 -95 -92 -45 -10 -6 -11 -17 -10 -9 -95 -182 0 0 0 0 0 0 0 0 0 0 0
0 0 0 0 0 0 0 0 0 0 0 0 0 0 0 0 0 0 0 0 0 0 0 0 0 -476 -281 -210 -160 -186 -111 -74 -62 -51 -60 -73 -95 -80 -67 0 0 0 0 0 0 0 0 0 0
0 0 0 0 0 0 0 0 0 0 0 0 0 0 0 0 0 0 0 0 0 0 0 0 0 0 -59 -272 -212 -279 -267 -266 -136 -61 -56 -91 -161 0 0 0 0 0 0 0 0 0 0 0 0
0 0 0 0 0 0 0 0 0 0 0 0 0 0 0 0 0 0 0 0 0 0 0 0 0 0 0 -22 -253 -261 -343 0 0 0 -146 -61 -52 0 0 0 0 0 0 0 0 0 0 0 0
0 0 0 0 0 0 0 0 0 0 0 0 0 0 0 0 0 0 0 0 0 0 0 0 0 0 0 0 -0 -0 0 0 0 0 0 -56 0 0 0 0 0 0 0 0 0 0 0 0 0
0 0 0 0 0 0 0 0 0 0 0 0 0 0 0 0 0 0 0 0 0 0 0 0 0 0 0 0 0 0 -0 -0 -61 0 0 -55 0 0 0 0 0 0 0 0 0 0 0 0 0
0 0 0 0 0 0 0 0 0 0 0 0 0 0 0 0 0 0 0 0 0 0 0 0 0 0 0 0 0 0 0 0 -0 0 0 0 0 0 0 0 0 0 0 0 0 0 0 0 0
0 0 0 0 0 0 0 0 0 0 0 0 0 0 0 0 0 0 0 0 0 0 0 0 0 0 0 0 0 0 0 -0 0 0 0 0 0 0 0 0 0 0 0 0 0 0 0 0 0
0 0 0 0 0 0 0 0 0 0 0 0 0 0 0 0 0 0 0 0 0 0 0 0 0 0 0 0 0 0 0 0 0 0 0 0 0 -0 0 0 0 0 0 0 0 0 0 0 0
0 0 0 0 0 0 0 0 0 0 0 0 0 0 0 0 0 0 0 0 0 0 0 0 0 0 0 0 0 0 0 0 0 0 0 0 0 0 -0 -0 0 0 0 0 0 0 0 0 0
0 0 0 0 0 0 0 0 0 0 0 0 0 0 0 0 0 0 0 0 0 0 0 0 0 0 0 0 0 0 0 0 0 0 0 0 0 0 0 0 0 0 0 0 0 0 0 0 0
0 0 0 0 0 0 0 0 0 0 0 0 0 0 0 0 0 0 0 0 0 0 0 0 0 0 0 0 0 0 0 0 0 0 0 0 0 0 0 0 0 0 0 0 0 0 0 0 0
0 0 0 0 0 0 0 0 0 0 0 0 0 0 0 0 0 0 0 0 0 0 0 0 0 0 0 0 0 0 0 0 0 0 0 0 0 0 0 0 0 0 0 0 0 0 0 0 0
0 0 0 0 0 0 0 0 0 0 0 0 0 0 0 0 0 0 0 0 0 0 0 0 0 0 0 0 0 0 0 0 0 0 0 0 0 0 0 0 0 0 0 0 0 0 0 0 0
0 0 0 0 0 0 0 0 0 0 0 0 0 0 0 0 0 0 0 0 0 0 0 0 0 0 0 0 0 0 0 0 0 0 0 0 0 0 0 0 0 0 0 0 0 0 0 0 0
0 0 0 0 0 0 0 0 0 0 0 0 0 0 0 0 0 0 0 0 0 0 0 0 0 0 0 0 0 0 0 0 0 0 0 0 0 0 0 0 0 0 0 0 0 0 0 0 0
0 0 0 0 0 0 0 0 0 0 0 0 0 0 0 0 0 0 0 0 0 0 0 0 0 0 0 0 0 0 0 0 0 0 0 0 0 0 0 0 0 0 0 0 0 0 0 0 0
0 0 0 0 0 0 0 0 0 0 0 0 0 0 0 0 0 0 0 0 0 0 0 0 0 0 0 0 0 0 0 0 0 0 0 0 0 0 0 0 0 0 0 0 0 0 0 0 0
0 0 0 0 0 0 0 0 0 0 0 0 0 0 0 0 0 0 0 0 0 0 0 0 0 0 0 0 0 0 0 0 0 0 0 0 0 0 0 0 0 0 0 0 0 0 0 0 0
0 0 0 0 0 0 0 0 0 0 0 0 0 0 0 0 0 0 0 0 0 0 0 0 0 0 0 0 0 0 0 0 0 0 0 0 0 0 0 0 0 0 0 0 0 0 0 0 0
0 0 0 0 0 0 0 0 0 0 0 0 0 0 0 0 0 0 0 0 0 0 0 0 0 0 0 0 0 0 0 0 0 0 0 0 0 0 0 0 0 0 0 0 0 0 0 0 0
0 0 0 0 0 0 0 0 0 0 0 0 0 0 0 0 0 0 0 0 0 0 0 0 0 0 0 0 0 0 0 0 0 0 0 0 0 0 0 0 0 0 0 0 0 0 0 0 0
Wind_Speed
5 4 3 6 6 7 1 1 1 3 2 1 1 2 2 2 3 3 3 7 2 6 9 10 12 12 11 10 9 9 8 8 8 9 9 9 8 7 6 9 10 10 9 8 7 8 9 10 10
3 2 5 3 7 5 5 4 1 1 1 1 2 2 4 1 2 5 2 7 4 6 8 9 11 12 12 11 10 9 9 8 8 7 6 6 6 7 6 10 10 9 9 8 6 7 8 9 9
3 4 5 6 4 4 4 3 2 2 2 1 2 2 3 2 2 2 2 6 5 6 6 7 11 11 12 14 12 10 10 9 9 8 7 6 6 5 7 9 9 9 7 6 6 7 8 9 9
3 5 5 6 2 2 1 1 3 2 3 4 1 2 3 2 1 2 3 6 5 5 5 7 11 11 11 11 12 11 11 10 9 8 8 9 7 6 10 9 8 9 8 6 5 5 7 7 8
5 4 5 4 3 3 3 1 2 1 0 2 2 2 3 3 2 2 3 4 5 5 5 5 11 11 10 11 10 11 11 10 10 9 9 10 9 8 6 6 5 2 2 3 3 5 6 6 6
5 4 6 2 2 3 2 3 1 2 2 3 2 2 3 3 1 3 2 2 3 6 6 6 9 10 10 11 11 11 11 11 10 10 10 12 11 10 7 3 3 2 1 2 3 4 5 6 6
7 5 4 3 1 2 2 5 3 1 2 2 1 3 4 4 7 2 3 3 2 1 2 3 5 7 9 10 11 11 10 10 9 9 9 8 10 10 8 5 3 2 3 1 1 3 5 6 6
6 6 3 2 1 1 3 3 2 1 1 5 1 2 4 3 6 5 6 7 6 4 3 3 3 5 4 4 7 8 9 8 7 6 6 7 7 8 8 6 4 4 3 2 0 3 3 4 6
3 6 2 4 6 3 2 4 0 2 0 4 3 1 6 9 6 7 7 7 7 5 4 3 3 5 8 6 4 6 7 7 9 8 7 6 3 5 6 4 4 3 2 3 2 2 2 6 8
6 4 6 3 2 2 2 1 3 4 6 2 4 5 12 10 10 11 10 9 9 11 11 8 6 5 5 4 4 4 4 4 3 4 4 3 4 5 5 4 5 2 1 3 2 2 8 6 3
2 4 3 3 3 1 1 2 2 2 4 2 4 7 10 11 12 11 9 6 6 6 6 9 8 8 8 6 4 3 2 1 2 5 4 1 2 3 3 2 2 2 4 2 3 4 3 3 2
1 3 3 3 1 2 2 3 1 5 3 4 8 6 5 10 9 9 9 9 10 9 9 10 9 7 6 6 5 4 3 3 2 1 3 3 2 3 3 3 3 2 2 3 3 1 2 2 1
2 2 1 3 4 4 3 5 2 6 6 9 9 12 11 10 9 7 7 7 8 9 10 11 9 7 6 5 3 2 3 2 3 3 3 3 3 3 3 4 3 3 3 3 3 3 2 1 1
1 3 6 6 2 3 5 2 2 2 6 10 10 9 8 10 9 8 12 11 12 11 12 11 10 8 5 1 3 2 1 2 1 2 1 2 3 3 5 3 4 4 4 3 3 3 3 2 2
2 4 7 4 2 3 6 1 5 4 7 9 10 8 9 9 11 10 8 8 10 10 9 11 11 10 7 6 5 4 3 4 4 4 5 4 3 2 3 3 3 4 3 4 3 3 3 1 1
3 5 4 3 2 2 3 7 3 6 9 7 7 7 8 10 8 9 9 8 8 8 11 11 10 11 12 11 9 8 9 8 8 8 8 10 7 4 3 2 3 1 2 3 2 2 2 3 3
6 3 4 9 1 2 2 6 3 5 9 7 6 6 7 7 10 10 9 8 9 9 10 11 12 12 10 13 11 12 13 11 10 10 11 14 14 13 8 6 5 4 2 1 1 1 1 1 2
6 5 4 6 1 3 2 7 9 6 7 7 6 6 6 7 9 8 9 9 8 9 9 10 9 11 8 7 10 10 11 10 10 10 10 13 11 14 10 9 9 7 4 4 3 4 3 3 3
5 5 6 3 3 2 7 7 12 4 7 8 7 6 6 6 5 6 9 10 10 11 11 12 12 11 7 5 4 7 7 7 9 10 13 13 11 11 11 8 9 8 7 6 5 3 3 2 3
3 5 6 5 4 6 6 10 2 3 2 6 8 6 6 4 5 6 8 9 11 10 11 12 12 12 9 5 4 4 4 5 6 8 12 12 13 13 12 10 9 9 7 9 8 5 3 2 2
5 8 5 8 1 2 1 8 4 3 4 6 5 5 5 5 5 6 7 7 7 10 9 11 10 11 10 9 4 4 4 4 6 9 9 12 13 13 12 12 10 10 9 7 7 6 6 3 3
6 8 7 4 3 4 2 6 4 4 3 3 5 6 6 6 4 3 4 5 7 7 7 7 9 10 11 10 12 14 10 9 4 4 5 8 12 13 13 12 12 11 8 10 8 7 5 3 3
6 5 5 3 3 1 3 0 8 5 6 6 8 7 6 6 6 6 5 5 5 6 6 6 8 11 10 10 9 9 10 6 3 4 8 8 8 11 12 11 11 10 8 9 10 10 9 5 3
9 7 7 5 3 1 9 8 5 6 6 6 7 7 7 6 5 4 4 4 4 6 6 7 8 8 8 9 10 11 10 7 7 7 7 6 4 7 10 9 9 8 9 9 7 7 8 8 6
4 7 1 3 1 7 1 2 8 5 3 5 14 12 9 7 6 6 6 4 4 5 4 5 6 8 6 9 9 8 9 8 9 6 5 6 5 4 8 8 8 6 6 7 7 7 6 7 6
7 7 7 8 5 4 2 7 7 3 5 7 9 11 9 8 6 6 6 5 5 6 5 5 6 8 7 7 8 7 7 4 4 5 4 4 4 4 5 5 6 6 6 5 6 4 4 6 5
5 5 2 7 3 2 6 5 2 1 1 4 7 10 10 8 9 9 7 7 7 6 5 6 6 6 6 7 6 6 5 6 6 5 4 3 3 3 5 5 6 6 6 6 6 4 5 5 4
4 6 5 3 2 6 4 5 5 5 8 6 8 11 8 8 8 8 8 7 5 5 5 6 6 6 6 7 6 5 6 6 5 4 6 6 6 6 6 6 6 5 5 5 5 5 5 5 5
3 3 3 3 4 6 3 6 6 8 9 13 12 11 11 11 10 8 7 7 7 6 6 6 6 7 6 6 5 6 5 6 6 5 5 5 4 5 6 6 6 6 6 6 5 6 7 8 8
0 7 7 7 7 3 1 12 2 4 11 16 14 11 9 8 8 8 8 8 7 7 6 7 6 6 6 5 5 5 4 4 5 4 5 5 5 5 5 5 5 5 6 6 7 10 8 8 10
Wind_Direction
354 18 64 44 59 65 357 324 239 353 28 244 136 114 152 168 145 201 264 192 299 156 166 171 175 174 165 156 149 150 146 142 133 127 122 117 112 108 98 114 106 94 82 70 59 57 55 48 42
351 91 44 77 82 66 283 268 227 246 263 312 113 70 48 359 279 292 13 177 175 157 165 171 176 174 171 160 158 158 157 153 144 134 122 114 110 107 111 109 96 80 63 59 53 55 50 45 40
143 47 81 91 106 147 182 234 245 293 358 70 68 75 140 293 300 241 303 154 139 154 162 175 178 179 176 166 165 166 165 163 160 154 146 136 126 116 115 111 101 90 65 64 65 53 43 36 32
51 13 39 77 91 200 189 257 229 335 18 33 112 62 310 217 250 299 16 130 132 156 162 175 183 189 184 171 168 174 176 175 172 171 169 157 138 153 143 141 140 111 96 61 57 56 46 37 31
35 55 56 72 314 283 272 310 161 49 40 335 348 329 296 336 319 24 101 130 151 167 168 172 186 191 186 179 176 180 186 189 185 184 188 166 147 139 149 154 122 64 37 356 6 41 41 33 38
44 91 60 141 264 300 324 7 108 20 328 343 39 359 277 302 326 95 117 154 190 181 182 179 189 190 192 183 187 191 192 194 195 194 195 174 165 165 170 161 114 189 281 57 340 35 36 30 28
103 77 163 173 284 341 307 321 98 197 1 357 240 2 275 48 340 328 117 44 32 295 201 210 197 201 197 191 187 190 194 199 206 213 206 199 173 176 158 155 111 202 262 340 348 35 25 17 21
100 90 116 222 199 200 320 357 138 77 333 301 211 280 315 12 354 42 40 32 21 14 329 288 283 225 218 215 199 195 196 198 203 219 215 208 177 169 165 160 163 200 216 180 167 64 22 14 21
112 62 169 205 159 208 339 42 305 312 259 345 328 12 358 338 8 38 14 9 9 359 333 305 256 240 233 222 205 205 199 201 207 209 221 207 165 178 170 165 187 212 162 149 191 122 42 56 21
81 105 220 223 191 196 311 82 327 11 360 21 329 5 7 19 26 39 25 7 359 348 339 345 303 236 221 216 216 205 208 225 195 214 238 196 186 177 166 177 177 190 130 133 230 141 96 67 42
138 167 203 255 234 111 303 310 128 351 329 87 290 341 19 23 30 30 21 12 339 318 343 345 337 309 240 213 186 182 183 227 224 203 215 187 140 134 148 139 169 171 141 105 62 75 83 78 63
66 203 190 286 287 36 304 328 358 203 152 128 78 72 46 30 27 21 6 357 350 345 341 336 334 323 271 234 220 184 179 179 182 157 146 146 150 150 169 162 172 189 169 154 133 130 145 122 87
162 295 238 271 264 256 320 249 243 271 76 87 71 52 40 31 17 11 358 355 346 354 338 338 329 327 307 233 216 168 213 179 189 171 154 157 166 175 174 178 167 190 175 187 175 171 198 234 273
218 320 299 290 242 242 209 223 171 23 112 69 64 58 45 40 19 12 13 360 357 344 343 333 337 337 318 163 110 99 35 318 332 60 339 247 196 187 183 182 190 183 185 190 179 169 198 258 315
91 333 326 281 316 220 166 281 213 147 101 76 54 45 43 32 24 23 2 355 346 336 329 352 350 348 27 80 86 75 53 40 18 358 344 331 284 268 158 167 190 208 186 175 170 164 158 186 317
35 55 358 284 161 315 142 261 67 143 98 80 64 46 40 31 23 9 2 1 351 348 356 351 1 14 41 57 61 61 54 53 41 37 31 19 11 341 310 299 268 260 178 180 193 168 199 183 203
7 238 210 312 60 117 124 260 177 128 105 103 73 54 45 29 24 10 2 357 355 352 2 12 9 14 37 65 69 64 57 57 45 36 29 24 28 26 26 21 13 5 354 359 155 56 311 202 210
196 211 233 232 354 67 150 267 286 45 101 115 95 70 52 44 19 0 1 2 3 1 10 21 29 25 20 50 62 62 61 52 48 47 45 37 30 30 34 33 29 18 19 25 23 26 22 357 328
149 176 210 249 223 133 236 236 263 84 100 126 130 114 89 58 4 8 10 5 7 19 27 27 32 13 27 30 49 50 56 46 47 44 37 38 37 43 42 40 33 27 36 29 19 26 12 342 360
146 175 238 283 228 163 262 255 200 19 104 157 141 128 114 100 43 23 20 19 21 12 15 26 28 28 34 32 40 72 88 64 68 47 45 36 34 29 36 40 39 36 41 39 30 22 353 345 18
200 207 187 213 10 258 24 286 170 31 77 82 94 121 118 113 87 36 27 24 7 24 18 23 22 34 32 34 63 67 59 42 40 33 41 32 36 34 34 37 36 33 31 31 27 25 29 353 351
220 196 189 178 116 230 125 273 303 154 124 139 149 151 143 129 104 78 42 42 33 22 10 36 46 46 42 39 65 68 74 75 36 43 54 45 38 39 37 37 39 38 35 29 11 12 16 355 339
223 119 157 141 154 85 243 322 256 129 224 196 199 182 175 167 151 125 89 60 38 27 37 40 49 54 49 58 71 78 84 77 58 41 50 42 34 37 32 32 34 39 36 30 27 16 17 22 354
146 83 53 53 83 273 226 184 254 193 209 167 172 191 178 177 166 132 110 99 65 38 40 38 61 53 51 65 65 78 81 73 68 44 50 31 21 33 30 29 31 31 29 24 16 16 24 15 6
99 103 342 350 338 232 329 164 247 185 182 189 183 177 179 186 175 163 157 133 117 95 79 76 79 74 63 74 72 75 79 75 72 57 52 41 23 22 17 18 24 24 17 19 14 16 13 11 6
181 163 161 209 204 244 61 238 258 351 327 266 162 164 173 178 182 180 173 168 149 141 132 121 105 97 80 75 74 69 71 75 78 72 72 54 46 32 15 14 19 15 15 15 8 3 356 354 348
191 196 146 100 17 46 210 261 227 50 38 106 144 161 187 183 186 185 179 184 178 167 153 134 114 108 104 101 105 95 95 82 82 77 78 77 66 33 20 17 14 7 5 5 0 353 339 331 316
154 164 79 2 250 260 253 256 225 228 213 167 178 192 202 201 193 185 186 193 192 170 157 155 147 134 139 127 109 95 90 84 81 68 46 34 23 15 11 9 7 1 358 351 351 335 324 322 316
141 174 80 140 150 197 282 253 209 206 168 185 201 203 198 201 204 191 191 194 185 177 176 168 161 153 146 136 134 119 95 73 64 58 42 28 17 12 11 2 357 353 349 344 335 323 315 318 309
37 197 162 188 226 240 135 261 349 238 185 180 194 202 206 204 195 187 189 187 187 196 188 184 176 172 177 159 133 117 103 76 61 43 26 18 11 2 346 345 345 337 336 334 327 321 316 305 306